[[{"header":{"parameterUnit":"m.s-1","parameterCategory":1,"la1":30.2991,"la2":30.254,"lo1":-89.0895,"lo2":-89.0444,"dy":0.0017,"dx":0.0017,"nx":28,"ny":28,"refTime":"2025-06-14T21:00:00:Z","depth":0,"parameterNumber":2,"parameterNumberName":"U-component_of_WINDS"},"data":[0,0,0,0,0,0,0,0,0,0,0,0,0,0,0,0,0,0,0,0,0,0,0,0,0,0,0,0,0,0,0,0,0,0,0,0,0,0,0,0,0,0,0,0,0,0,0,0,0,0,0,0,0,0,0,0,0,0,3.389,3.3891,0,3.3994,3.3995,3.3997,3.3975,3.3973,3.3971,3.397,3.4075,3.4079,3.4084,0,0,0,0,0,0,0,0,0,0,0,0,0,3.3667,3.3671,3.389,3.3891,3.3892,3.3994,3.3996,3.3997,3.3976,3.3973,3.3971,3.3969,3.4073,3.4079,3.4084,0,0,0,0,0,0,0,0,0,0,0,0,0,3.3767,3.3672,3.3889,3.3894,3.3895,3.3994,3.3996,3.3997,3.3976,3.3973,3.397,3.3968,3.4071,3.4078,3.4085,3.4185,0,0,3.4106,3.4109,0,0,0,0,0,0,0,0,3.3761,3.3775,3.3892,3.3894,3.3895,3.3969,3.3956,3.406,3.3977,3.3945,3.397,3.3966,3.4042,3.4051,3.4077,3.419,3.4194,3.4106,3.4111,3.4114,3.4116,0,0,0,0,0,0,0,3.3754,3.377,3.3931,3.3894,3.3896,3.3889,3.39,3.3975,3.4008,3.3948,3.3947,3.3959,3.4042,3.407,3.4079,3.4196,3.4106,3.4112,3.4117,3.4119,3.4392,3.4395,0,0,0,0,0,0,3.3746,3.3765,3.3928,3.3934,3.382,3.3896,3.3908,3.3948,3.4007,3.4014,3.3962,3.3958,3.406,3.4071,3.4083,3.42,3.4114,3.412,3.4124,3.4389,3.4392,3.4396,0,0,0,0,0,0,3.3741,3.3761,3.3923,3.3849,3.3869,3.3902,3.3948,3.3952,3.398,3.4018,3.4023,3.3985,3.4058,3.4073,3.4159,3.4204,3.4123,3.4129,3.4385,3.439,3.4394,3.4439,0,0,0,0,0,0,3.3735,3.3759,3.3799,3.385,3.3873,3.3999,3.3951,3.3956,3.3992,3.3988,3.4041,3.4047,3.4057,3.4149,3.4166,3.4212,3.4135,3.4381,3.4387,3.4393,3.4433,3.4444,3.4454,0,0,0,0,0,3.3727,3.3808,3.3801,3.3821,3.3924,3.4002,3.4015,3.4026,3.3996,3.4034,3.4058,3.4045,3.4197,3.4158,3.4177,3.4225,3.4378,3.4385,3.4392,3.4429,3.4442,3.4453,0,0,0,0,0,0,3.3761,3.3815,3.3808,3.3907,3.395,3.3998,3.4048,3.404,3.4092,3.4086,3.4096,3.4108,3.4195,3.4219,3.4175,3.4323,3.4283,3.4294,3.4304,3.4317,3.4327,3.4318,3.414,0,0,0,0,0,3.378,3.384,3.3883,3.3967,3.3989,3.4015,3.4049,3.4054,3.4098,3.4116,3.4146,3.4189,3.4246,3.4283,3.4338,3.4437,3.4446,3.448,3.449,3.4498,3.4507,3.4557,3.4572,3.4419,3.4419,3.4418,0,0,3.382,3.3856,3.3894,3.3975,3.4008,3.4068,3.403,3.4096,3.414,3.4126,3.4208,3.4232,3.428,3.4372,3.4414,3.4394,3.4551,3.4507,3.4513,3.4518,3.4566,3.458,3.4593,3.4423,3.4423,3.4422,0,0,3.3922,3.3958,3.4029,3.4064,3.4115,3.4131,3.4148,3.4197,3.4212,3.4295,3.4284,3.4336,3.4435,3.4469,3.4499,3.4611,3.4599,3.4629,3.4681,3.473,3.4742,3.4753,3.479,3.4803,3.4638,3.4638,3.4638,0,3.3965,3.4056,3.4067,3.4134,3.4168,3.4158,3.4229,3.4261,3.4328,3.4351,3.4328,3.445,3.4482,3.458,3.4607,3.4633,3.465,3.4622,3.474,3.4751,3.4761,3.4796,3.481,3.4641,3.4641,3.464,3.464,0,3.4104,3.4168,3.422,3.4283,3.4324,3.4392,3.4411,3.4451,3.4451,3.4469,3.4551,3.4589,3.465,3.4674,3.4675,3.4771,3.4757,3.4738,3.4697,3.4778,3.4811,3.4825,3.4645,3.4644,3.4643,3.4643,0,0,3.4232,3.4299,3.4317,3.4344,3.4399,3.4447,3.4514,3.4574,3.4606,3.4652,3.4706,3.4788,3.477,3.4804,3.4809,3.4852,3.4934,3.4827,3.4828,3.4843,3.5038,3.505,3.5066,3.4928,3.493,3.4933,3.5033,0,3.4337,3.4455,3.4465,3.4571,3.4627,3.4617,3.4675,3.4714,3.4732,3.4781,3.4801,3.4858,3.4831,3.4851,3.4894,3.4915,3.4973,3.4909,3.4976,3.4978,3.4961,3.5084,3.5098,3.5191,3.5046,3.5049,3.505,0,3.4476,3.4524,3.4635,3.4679,3.4703,3.4755,3.4808,3.4857,3.4899,3.4909,3.4946,3.4944,3.5011,3.4969,3.5058,3.5014,3.5042,3.5057,3.5061,3.5065,3.5017,3.5089,3.5221,3.5234,3.5071,3.507,3.5068,0,3.4552,3.4646,3.4724,3.4748,3.4802,3.4838,3.4862,3.4902,3.4936,3.4982,3.5004,3.5058,3.5086,3.5127,3.5139,3.5108,3.5227,3.5187,3.5235,3.5234,3.5259,3.5257,3.5394,3.5282,3.5281,3.5281,3.5281,0,3.4667,3.4735,3.4759,3.4806,3.488,3.4891,3.4964,3.4986,3.5021,3.5071,3.5066,3.5113,3.5127,3.5176,3.5185,3.5256,3.527,3.5278,3.5279,3.5277,3.5276,3.5294,3.5287,3.5285,3.5284,3.5283,3.5283,0,3.4766,3.4785,3.4868,3.4912,3.4924,3.4977,3.5013,3.5058,3.5074,3.5137,3.5153,3.5179,3.5235,3.5252,3.532,3.5327,3.5409,3.5406,3.5394,3.5393,3.5439,3.5433,3.5591,3.5611,3.5488,3.5489,3.549,0,3.4836,3.4888,3.4936,3.4969,3.4995,3.5049,3.5083,3.5094,3.513,3.5181,3.5218,3.5274,3.532,3.541,3.5434,3.5486,3.5482,3.5534,3.549,3.5484,3.5479,3.5474,3.5478,3.5541,3.5543,3.5544,3.5544,0,3.4959,3.4965,3.5015,3.5067,3.5108,3.515,3.519,3.5217,3.5234,3.5274,3.5331,3.5366,3.5435,3.549,3.5542,3.5564,3.5556,3.5558,3.5571,3.5568,3.5558,3.5561,3.5414,3.5554,3.5553,3.5553,3.5552,3.5552,3.5043,3.5087,3.5127,3.5182,3.5213,3.525,3.5293,3.5314,3.5363,3.542,3.5424,3.5486,3.5524,3.5593,3.5618,3.5665,3.565,3.567,3.5674,3.5678,3.568,3.5553,3.5675,3.5675,3.5675,3.5674,3.5674,0,3.5162,3.5187,3.5237,3.5293,3.5335,3.5325,3.5368,3.5403,3.5458,3.5495,3.5539,3.5604,3.5656,3.5684,3.5735,3.5767,3.5765,3.578,3.5776,3.5781,3.5693,3.5675,3.5781,3.5781,3.5781,3.5781,3.5781,3.5781,3.5229,3.5301,3.5312,3.5399,3.5423,3.5484,3.5509,3.5542,3.5571,3.5643,3.5686,3.5704,3.5737,3.579,3.5837,3.5843,3.5861,3.5878,3.5882,3.5799,3.5788,3.5777,3.576,3.5883,3.5883,3.5966,3.5967,3.5967]},{"header":{"parameterUnit":"m.s-1","parameterCategory":1,"la1":30.2991,"la2":30.254,"lo1":-89.0895,"lo2":-89.0444,"dy":0.0017,"dx":0.0017,"nx":28,"ny":28,"refTime":"2025-06-14T21:00:00:Z","depth":0,"parameterNumber":3,"parameterNumberName":"V-component_of_WINDS"},"data":[0,0,0,0,0,0,0,0,0,0,0,0,0,0,0,0,0,0,0,0,0,0,0,0,0,0,0,0,0,0,0,0,0,0,0,0,0,0,0,0,0,0,0,0,0,0,0,0,0,0,0,0,0,0,0,0,0,0,4.4095,4.4097,0,4.4276,4.4278,4.428,4.4259,4.4256,4.4253,4.425,4.4432,4.444,4.4447,0,0,0,0,0,0,0,0,0,0,0,0,0,4.3724,4.3731,4.4094,4.4097,4.4099,4.4276,4.4278,4.4281,4.4259,4.4256,4.4252,4.4249,4.443,4.4439,4.4448,0,0,0,0,0,0,0,0,0,0,0,0,0,4.3893,4.3734,4.4094,4.411,4.4113,4.4275,4.4278,4.4281,4.426,4.4256,4.4251,4.4247,4.4427,4.4438,4.4449,4.4606,0,0,4.4484,4.4489,0,0,0,0,0,0,0,0,4.3884,4.3907,4.4105,4.4109,4.4113,4.424,4.4214,4.439,4.4261,4.4204,4.425,4.4245,4.4372,4.4387,4.4431,4.4615,4.4623,4.4485,4.4492,4.4496,4.45,0,0,0,0,0,0,0,4.3872,4.3899,4.4166,4.4108,4.4113,4.4106,4.4125,4.4248,4.431,4.4209,4.4208,4.4229,4.4373,4.442,4.4435,4.4625,4.4484,4.4494,4.4501,4.4506,4.4944,4.4949,0,0,0,0,0,0,4.3857,4.3889,4.416,4.4172,4.3985,4.4116,4.4138,4.4204,4.4309,4.432,4.4233,4.4228,4.4403,4.4422,4.4441,4.4631,4.4496,4.4507,4.4513,4.494,4.4945,4.4951,0,0,0,0,0,0,4.3849,4.3882,4.4153,4.403,4.4064,4.4127,4.4202,4.421,4.4257,4.4327,4.4338,4.427,4.44,4.4425,4.4565,4.4637,4.4512,4.4522,4.4934,4.4941,4.4948,4.5012,0,0,0,0,0,0,4.3839,4.3879,4.3941,4.4032,4.4071,4.4276,4.4206,4.4216,4.4277,4.4272,4.4365,4.4376,4.4398,4.4548,4.4576,4.465,4.4531,4.4928,4.4937,4.4946,4.5004,4.5021,4.5035,0,0,0,0,0,4.3826,4.3951,4.3944,4.3977,4.415,4.428,4.4302,4.4327,4.4283,4.4344,4.4389,4.4373,4.4624,4.4563,4.4594,4.4673,4.4923,4.4934,4.4945,4.4997,4.5017,4.5035,0,0,0,0,0,0,4.3866,4.3964,4.3957,4.4116,4.419,4.4276,4.4355,4.4348,4.4436,4.4427,4.4453,4.4474,4.4615,4.4657,4.4587,4.4829,4.4767,4.4785,4.4796,4.4816,4.4831,4.4818,4.4541,0,0,0,0,0,4.3894,4.3993,4.4072,4.4205,4.4242,4.4292,4.435,4.4362,4.444,4.4471,4.4526,4.46,4.4695,4.4758,4.485,4.5009,4.5028,4.5078,4.5094,4.5106,4.5121,4.5207,4.5229,4.4986,4.4986,4.4986,0,0,4.3952,4.4017,4.4078,4.4215,4.4273,4.4374,4.4319,4.4428,4.4502,4.4487,4.4622,4.4665,4.4749,4.4899,4.4968,4.4939,4.5192,4.512,4.513,4.5138,4.522,4.5243,4.5264,4.4994,4.4992,4.4991,0,0,4.4109,4.4169,4.4285,4.4345,4.4435,4.4467,4.4495,4.4582,4.461,4.4746,4.4737,4.4824,4.4989,4.5049,4.5101,4.5277,4.5265,4.5306,4.5388,4.547,4.549,4.5507,4.5568,4.559,4.5321,4.5321,4.5321,0,4.4169,4.4321,4.4345,4.4456,4.4515,4.4506,4.4623,4.4679,4.4794,4.4834,4.48,4.5006,4.5062,4.5225,4.5267,4.531,4.5341,4.5296,4.5485,4.5502,4.5519,4.5578,4.5601,4.5325,4.5325,4.5324,4.5324,0,4.439,4.4496,4.4578,4.469,4.4759,4.4871,4.4911,4.4977,4.4982,4.5017,4.5155,4.5222,4.5326,4.5365,4.5372,4.5529,4.5508,4.5479,4.5418,4.5546,4.5602,4.5625,4.5332,4.533,4.5329,4.5328,0,0,4.458,4.4702,4.4732,4.4781,4.4879,4.496,4.5071,4.5174,4.5229,4.5307,4.54,4.5538,4.5512,4.5571,4.5584,4.5657,4.579,4.5619,4.5621,4.5648,4.5964,4.5985,4.6011,4.5782,4.5786,4.579,4.5957,0,4.4745,4.4943,4.4967,4.5142,4.5239,4.5231,4.5327,4.5396,4.5431,4.5516,4.5553,4.5651,4.561,4.5645,4.5716,4.5759,4.5854,4.5747,4.5867,4.5871,4.5846,4.604,4.6063,4.6218,4.5979,4.5983,4.5986,0,4.4965,4.5051,4.5236,4.5318,4.5359,4.5446,4.5541,4.5623,4.57,4.572,4.5785,4.5788,4.59,4.5834,4.5987,4.5914,4.5964,4.5992,4.5998,4.601,4.5936,4.6057,4.6268,4.6291,4.602,4.6018,4.6015,0,4.5083,4.5244,4.5375,4.5418,4.5518,4.5578,4.5622,4.5695,4.5754,4.5837,4.5875,4.5969,4.602,4.6092,4.6119,4.6069,4.6271,4.6207,4.6289,4.6288,4.6332,4.6329,4.6553,4.6365,4.6365,4.6364,4.6364,0,4.5266,4.5379,4.5429,4.551,4.5636,4.5661,4.5784,4.5825,4.5889,4.5976,4.5974,4.6055,4.6087,4.6172,4.6194,4.6317,4.634,4.6358,4.6362,4.6358,4.6356,4.6391,4.6381,4.637,4.6369,4.6368,4.6367,0,4.5419,4.5458,4.56,4.5682,4.5705,4.5794,4.5863,4.594,4.5973,4.6083,4.611,4.6161,4.6262,4.6296,4.6417,4.6431,4.6574,4.657,4.6549,4.655,4.6629,4.6621,4.6884,4.6919,4.6708,4.671,4.6711,0,4.5533,4.562,4.5711,4.5769,4.5816,4.591,4.5971,4.5998,4.606,4.6153,4.6218,4.6318,4.64,4.656,4.6607,4.6699,4.6696,4.6782,4.671,4.6702,4.6696,4.6691,4.6699,4.6795,4.6797,4.6799,4.6801,0,4.573,4.5744,4.5833,4.5927,4.6,4.6075,4.6148,4.6196,4.6233,4.6303,4.6407,4.647,4.6593,4.6692,4.6786,4.6828,4.6821,4.6823,4.6846,4.6843,4.6827,4.6836,4.6585,4.6817,4.6815,4.6814,4.6813,4.6812,4.5866,4.5943,4.6018,4.6116,4.6174,4.6241,4.6317,4.6359,4.6446,4.655,4.656,4.6671,4.6742,4.6868,4.6915,4.7,4.6976,4.7011,4.7019,4.7027,4.7033,4.6813,4.7017,4.7017,4.7017,4.7016,4.7016,0,4.6063,4.611,4.62,4.6302,4.6379,4.6365,4.6444,4.6509,4.6607,4.6675,4.6755,4.6872,4.6967,4.7021,4.7115,4.7173,4.7171,4.7197,4.7192,4.7202,4.705,4.702,4.7196,4.7196,4.7196,4.7196,4.7196,4.7196,4.6174,4.6301,4.6324,4.6479,4.6526,4.6636,4.6682,4.6743,4.6798,4.6929,4.7009,4.7043,4.7105,4.7204,4.7289,4.7302,4.7337,4.7364,4.7375,4.7232,4.7213,4.7195,4.7167,4.7372,4.7372,4.752,4.7521,4.7522]}]]